sat.trackr.live / text

‹ back to catalog

STARLINK-3588

NORAD 51869 · 2022-022T

PAYLOAD ACTIVE UNKNOWN

§ Identity

Operator
Country
US
Launch date
2022-03-03
Launch site
AFETR
Launch vehicle
Mass (kg)
RCS (m²)

Purposes: comms

External: N2YO · Heavens-Above · Gunter

§ Orbital elements

Epoch: 2026-09-19T12:07:35.042880Z

Period
93.79 min
Inclination
53.1604°
Eccentricity
0.0001297
Mean motion
15.35394573 rev/d
Perigee alt
458.9 km
Apogee alt
460.6 km
Semi-major
6,837.9 km
B*
3.1282e-5
RAAN
208.6034°
Arg perigee
87.3507°
Mean anomaly
272.7645°
Rev number
25,251

§ Raw data

STARLINK-35881 51869U 22022T   26262.50526670  .00000711  00000+0  31282-4 0  99942 51869  53.1604 208.6034 0001297  87.3507 272.7645 15.35394573252515

JSON: /api/v1/satellites/51869 · /tle

For live sub-satellite position, see the globe view (requires WebGL).

§ Visibility from observer

Set your observer location to see the next 7 days of passes ≥ 10°. The values pass through the URL so the page stays shareable.

No JS? Fill the form by hand. The geolocation button needs JavaScript.